Location: Ladrillo (historical)
(32.8195°N, 117.2231°W)
Time: 19:34:42
(UTC+00:00)

FO-99 - Pass Details

Date: 20 April 2021
Orbit: 472 x 506 km, 97.2° (Epoch: 13 May)

Event Time Altitude Azimuth Distance (km) Brightness Sun altitude
Exits shadow 03:35:43 30° 122° (ESE) 930 ? -15.3°
Maximum altitude 03:37:00 41° 75° (ENE) 738 ? -15.6°
Drops below altitude 10° 03:40:31 10° 4° (N) 1,724 ? -16.2°
Sets 03:42:41 0° 358° (N) 2,611 ? -16.7°
